This is the latest recevied weather packets stored in our database for station/object KD4IZ-13. If no packets are shown the sender has not sent any weather packets the latest 10 day(s).
| Time | Temp. | Humidity | Pressure | Rain* | Wind** | Luminosity | Snow |
|---|---|---|---|---|---|---|---|
| 1778187976 | 17.78° C | 45% | 1010.2 hPa | 0 mm | - | 400 W/m² | - |
| 1778187673 | 17.78° C | 47% | 1010.2 hPa | 0 mm | - | 441 W/m² | - |
| 1778187369 | 17.22° C | 46% | 1010.3 hPa | 0 mm | - | 155 W/m² | - |
| 1778187066 | 17.22° C | 47% | 1010.2 hPa | 0 mm | - | 282 W/m² | - |
| 1778186762 | 17.22° C | 49% | 1010.2 hPa | 0 mm | - | 441 W/m² | - |
| 1778186460 | 17.22° C | 44% | 1010.1 hPa | 0 mm | - | 470 W/m² | - |
| 1778186157 | 17.22° C | 47% | 1010.2 hPa | 0 mm | - | 455 W/m² | - |
| 1778185855 | 17.22° C | 45% | 1010.2 hPa | 0 mm | - | 465 W/m² | - |
| 1778185550 | 17.22° C | 47% | 1009.9 hPa | 0 mm | - | 473 W/m² | - |
| 1778185246 | 17.78° C | 47% | 1010.1 hPa | 0 mm | - | 490 W/m² | - |
| 1778184942 | 17.78° C | 43% | 1010.1 hPa | 0 mm | - | 517 W/m² | - |
| 1778184639 | 17.78° C | 48% | 1010.2 hPa | 0 mm | - | 517 W/m² | - |
| 1778184334 | 17.78° C | 46% | 1010.1 hPa | 0 mm | - | 527 W/m² | - |
| 1778184031 | 17.78° C | 45% | 1010.2 hPa | 0 mm | - | 497 W/m² | - |
| 1778183728 | 17.78° C | 47% | 1010.4 hPa | 0 mm | - | 537 W/m² | - |
| 1778183425 | 17.22° C | 49% | 1010.6 hPa | 0 mm | - | 558 W/m² | - |
| 1778183121 | 17.78° C | 46% | 1010.5 hPa | 0 mm | - | 580 W/m² | - |
| 1778182818 | 18.33° C | 48% | 1010.5 hPa | 0 mm | - | 595 W/m² | - |
| 1778182515 | 17.78° C | 53% | 1010.3 hPa | 0 mm | - | 596 W/m² | - |
| 1778182212 | 17.22° C | 45% | 1010.6 hPa | 0 mm | - | 609 W/m² | - |
| 1778181908 | 17.22° C | 47% | 1010.7 hPa | 0 mm | - | 628 W/m² | - |
| 1778181605 | 16.67° C | 49% | 1010.7 hPa | 0 mm | - | 630 W/m² | - |
| 1778181300 | 17.22° C | 47% | 1010.9 hPa | 0 mm | - | 611 W/m² | - |
| 1778180997 | 17.22° C | 51% | 1011 hPa | 0 mm | - | 586 W/m² | - |
| 1778180695 | 16.67° C | 49% | 1010.9 hPa | 0 mm | - | 625 W/m² | - |
* Rain latest hour (hover to see other rain measurements)
** Current wind speed in m/s (hover to see current wind gust speed)